Find Starlink 30812

NORAD ID: 58168 Int'l Des: 2023-166 Owner: SPXS Country: US Constellation: starlink operational
LEOCIRCULAR

現在のビュー

3D地球を読み込み中...

About Starlink 30812

Starlink 30812 (NORAD 58168) is a starlink constellation satellite (v2 mini) launched Oct 29, 2023 by SPXS of US. It operates in LEO, CIRCULAR orbit with a mass of 730.00 kg.

Starlink 30812について

説明を読み込み中...

次回通過

Passes for default location (London). Set your location on the main map for personalized predictions.

高度履歴

Loading altitude history...

軌道要素

1 58168U 23166U 26170.06392632 -.00000688 00000-0 -11115-4 0 9990
2 58168 53.1601 108.4985 0001254 94.7843 265.3301 15.30186832148558
Epoch: Jun 19, 2026 • Age: 11 hours

現在のステータス

高度 494.5 km
速度 7.62 km/s
衛星直下点 -53.03°S, 80.92°W
打ち上げ日 Oct 29, 2023
運用期間 2.6 years
タイプ internet

技術仕様

分類 Payload
質量 730.00 kg
乾燥質量 700.00 kg
総質量 730.00 kg
長さ 0.30 m
直径 4.10 m
スパン 29.00 m
形状 Box + pan
製造者 SPXS
バスタイプ Starlink V2M
フェーズステータス In Orbit
所有者/国 SPXS/US

Most Searched